Location: *
(50.8333°N, 4.6500°E)
Time: 19:47:53
(UTC+00:00)

Daily predictions for brighter satellites

Satellite Brightness Start Highest point End
(mag) Time Altitude Azimuth Time Altitude Azimuth Time Altitude Azimuth
Cosmos 1821 Rocket 4.1 17:01:45 10° N 17:07:54 90° WSW 17:14:05 10° S
Cosmos 1605 Rocket 4.3 17:02:38 10° N 17:08:33 44° ENE 17:14:21 10° SE
Cosmos 1844 3.8 17:04:08 10° SSW 17:09:53 84° ESE 17:15:42 10° NNE
Cosmos 1356 4.0 17:07:10 10° SSE 17:10:20 35° E 17:13:31 10° NNE
Unknown 3.8 17:06:18 10° W 17:10:26 71° N 17:14:34 10° ENE
Cosmos 1934 Rocket 4.1 17:05:17 10° N 17:11:37 67° ENE 17:17:58 10° SSE
Cosmos 1953 2.5 17:07:43 10° S 17:11:47 84° W 17:15:53 10° N
Unknown 3.8 17:08:13 10° W 17:12:22 71° NNW 17:16:31 10° ENE
Unknown 3.8 17:10:03 10° W 17:14:13 71° NNW 17:18:23 10° ENE
Cosmos 1606 Rocket 3.5 17:10:25 10° S 17:14:47 86° ESE 17:19:09 10° N
Unknown 3.8 17:11:32 10° W 17:15:42 70° N 17:19:53 10° ENE
CSL-04 Rocket 4.1 17:11:18 10° SE 17:16:27 42° ENE 17:21:34 10° N
Unknown 3.8 17:13:15 10° W 17:17:23 70° N 17:21:32 10° ENE
Unknown 3.8 17:15:02 10° W 17:19:10 68° N 17:23:18 10° ENE
COBE Rocket 4.3 17:14:13 10° NNE 17:19:13 48° E 17:24:05 10° S
Cosmos 2263 Rocket 4.1 17:15:02 10° W 17:19:38 25° NW 17:24:15 10° NNE
Meteor 2-10 4.1 17:16:36 10° S 17:21:27 50° E 17:26:20 10° NNE
Unknown 3.8 17:18:21 10° W 17:22:29 68° N 17:26:30 11° ENE
Unknown 3.8 17:18:25 10° W 17:22:34 68° N 17:26:34 11° ENE
Unknown 3.8 17:19:53 10° W 17:24:02 68° N 17:27:58 11° ENE
Nadezhda 3 Rocket 4.2 17:17:47 10° S 17:24:07 83° W 17:30:32 10° N
Cosmos 1535 Rocket 4.5 17:18:48 10° N 17:25:04 82° E 17:31:11 10° SSE
Cosmos 1470 4.5 17:21:45 10° SW 17:25:29 37° WNW 17:29:13 10° N
Unknown 3.2 17:22:53 10° WNW 17:26:25 83° SSW 17:29:55 10° ESE
Unknown 3.8 17:23:08 10° W 17:27:16 67° N 17:31:05 12° ENE
Unknown 3.8 17:26:34 10° W 17:30:42 66° N 17:34:22 13° ENE
YAOGAN 6 2.7 17:28:39 10° SSE 17:32:11 50° ENE 17:35:42 10° N
Unknown 3.8 17:28:15 10° W 17:32:23 66° N 17:35:58 13° ENE
Cosmos 292 Rocket 3.7 17:28:03 10° SSW 17:32:45 70° ESE 17:37:31 10° NNE
Cosmos 1833 Rocket 2.7 17:27:13 10° NNW 17:32:51 74° ENE 17:38:28 10° SE
Cosmos 2058 4.2 17:29:35 10° NNE 17:32:52 21° ENE 17:36:07 10° ESE
Unknown 3.8 17:29:55 10° W 17:34:03 65° N 17:37:34 14° ENE
Unknown 3.6 17:30:17 10° WNW 17:34:06 63° N 17:37:14 15° E
Unknown 3.8 17:31:36 10° W 17:35:44 65° N 17:39:11 14° ENE
Unknown 3.8 17:34:57 10° W 17:39:04 65° N 17:42:23 15° ENE
Unknown 3.8 17:36:40 10° W 17:40:48 64° N 17:44:02 16° ENE
NOSS 3-2 (A) 4.2 17:35:52 10° S 17:40:48 30° ESE 17:46:15 10° ENE
Cosmos 1328 4.1 17:37:47 10° NNW 17:41:47 72° W 17:45:42 10° S
Unknown 3.8 17:38:15 10° W 17:42:22 64° N 17:45:33 16° ENE
SKYMED 2 3.7 17:39:04 10° NNE 17:43:21 55° E 17:47:37 10° S
Ariane Rocket 3.6 17:39:19 10° SE 17:43:55 35° ENE 17:48:33 10° N
Unknown 3.8 17:39:52 10° W 17:44:00 64° N 17:47:06 17° ENE
Cosmos 2228 3.8 17:40:34 10° SSW 17:44:51 56° WNW 17:49:08 10° N
Unknown 3.8 17:41:38 10° W 17:45:46 64° N 17:48:48 18° ENE
YAOGAN 1 2.5 17:42:08 10° SSE 17:46:24 62° ENE 17:50:42 10° N
NOSS 3-3 (A) 4.5 17:39:39 10° NW 17:46:58 77° NE 17:55:09 10° SE
NOSS 3-3 (C) 4.5 17:39:44 10° NW 17:47:04 76° NE 17:55:14 10° SE
Unknown 3.8 17:43:04 10° W 17:47:11 64° N 17:50:10 18° ENE
Unknown 3.8 17:46:24 10° W 17:50:32 64° N 17:53:22 19° ENE
Cosmos 921 Rocket 3.9 17:47:47 10° SW 17:52:11 53° WNW 17:56:33 10° NNE
Unknown 3.8 17:48:04 10° W 17:52:12 64° N 17:54:58 20° ENE
Cosmos 2100 Rocket 4.3 17:47:44 10° N 17:53:34 41° ENE 17:59:19 10° SE
Unknown 3.8 17:49:58 10° W 17:54:05 63° N 17:56:46 21° ENE
Cosmos 1300 3.6 17:50:53 10° SSE 17:54:08 27° E 17:57:23 10° NNE
Cosmos 1939 Rocket 3.3 17:51:23 10° SE 17:55:09 40° ENE 17:59:00 10° N
Unknown 3.8 17:51:25 10° W 17:55:33 63° N 17:58:10 21° ENE
HJ-1C 4.5 17:54:54 23° E 17:55:38 25° ENE 17:58:28 10° N
Unknown 3.5 17:51:46 10° WNW 17:55:39 66° N 17:57:58 23° E
Abrixas rocket 2.9 17:53:30 10° SW 17:56:22 37° SSE 17:57:37 25° ESE
Cosmos 1937 Rocket 4.4 17:52:12 10° N 17:56:42 29° NE 17:59:13 20° E
Cosmos 489 Rocket 4.5 17:50:45 10° SSW 17:56:58 90° ESE 18:03:13 10° NNE
Unknown 3.8 17:53:02 10° W 17:57:10 63° N 17:59:43 22° ENE
CZ-2D R/B 3.5 17:54:37 10° SE 17:58:20 46° ENE 18:02:05 10° N
Unknown 3.8 17:56:26 10° W 18:00:34 63° N 18:02:58 23° ENE
Unknown 3.8 17:58:03 10° W 18:02:11 63° N 18:04:32 24° ENE
ADEOS Rocket 4.5 17:57:54 10° NE 18:03:29 21° E 18:07:27 14° ESE
Cosmos 2082 Rocket 2.2 17:58:00 10° NNW 18:03:46 86° ENE 18:09:27 10° SSE
Unknown 3.8 17:59:45 10° W 18:03:53 63° N 18:06:09 25° ENE
CSL-04 Debris 4.2 17:59:16 10° SSE 18:04:45 88° WSW 18:10:17 10° NNW
Unknown 3.7 18:01:18 10° WNW 18:05:20 64° N 18:07:24 27° ENE
BREEZE-M DEB (TANK) 4.1 18:01:07 10° WNW 18:05:28 63° SSW 18:17:49 10° SE
Unknown 3.8 18:01:23 10° W 18:05:31 63° N 18:07:43 26° ENE
NOSS 3-2 (C) 4.2 18:01:37 10° S 18:06:34 29° ESE 18:09:34 20° ENE
Cosmos 1153 Rocket 4.4 18:02:32 10° N 18:08:42 76° E 18:14:50 10° SSE
Unknown 3.8 18:04:48 10° W 18:08:55 63° N 18:10:59 28° ENE
ASTEX 1 3.8 18:04:04 10° N 18:09:00 68° W 18:13:56 10° SSW
USA 116 3.2 18:06:22 10° NNE 18:09:32 60° ESE 18:12:57 10° S
Unknown 3.8 18:05:52 10° W 18:09:58 63° N 18:11:59 28° ENE
Unknown 3.8 18:06:35 10° W 18:10:43 63° N 18:12:41 29° ENE
Unknown 3.8 18:07:54 10° W 18:11:58 63° N 18:13:50 30° ENE
Unknown 3.8 18:08:18 10° W 18:12:26 63° N 18:14:20 30° ENE
Cosmos 1844 Rocket 4.3 18:09:58 10° WSW 18:15:04 33° NW 18:20:10 10° NNE
Unknown 3.8 18:11:27 10° W 18:15:34 63° N 18:17:21 32° ENE
Unknown 4.4 18:14:08 10° W 18:17:16 35° SSW 18:19:11 19° SSE
Unknown 3.8 18:14:46 10° W 18:18:54 63° N 18:20:32 34° ENE
Cosmos 1461 4.3 18:15:27 10° NW 18:19:14 37° WSW 18:23:07 10° S
Unknown 3.8 18:16:26 10° W 18:20:33 64° N 18:22:08 35° ENE
Cosmos 2058 Rocket 4.5 18:16:41 10° SW 18:20:46 40° WNW 18:24:55 10° N
Unknown 3.8 18:18:04 10° W 18:22:12 64° N 18:23:42 36° ENE
Lacrosse 5 2.6 18:18:37 10° WNW 18:23:31 51° SW 18:27:31 15° SSE
Unknown 3.8 18:19:45 10° WNW 18:23:53 64° N 18:25:18 38° ENE
SL-27 R/B 4.2 18:22:11 10° N 18:23:39 18° NNE 18:23:39 18° NNE
Meteor 2-1 Rocket 4.4 18:19:55 10° SSE 18:25:06 44° E 18:30:23 10° NNE
SJ 16-02 1.8 18:21:00 10° N 18:25:09 38° ENE 18:25:45 36° E
CZ-4 R/B 2.8 18:22:11 10° S 18:26:11 42° W 18:30:15 10° NNW
FALCON 9 DEB 4.4 18:23:16 10° W 18:26:29 35° SSW 18:28:00 23° SSE
In-Cosmos 22 Rocket 4.1 18:22:12 10° N 18:27:35 61° ENE 18:32:45 11° SSE
SPOT 3 Rocket 4.2 18:26:38 32° E 18:27:44 35° ENE 18:32:26 10° N
ATLAS CENTAUR R/B 3.2 18:25:53 10° NNW 18:29:23 21° NNE 18:30:12 20° NE
Unknown 3.7 18:26:25 10° WNW 18:30:33 65° N 18:31:42 43° ENE
COSMO-SKYMED 1 3.4 18:27:11 10° N 18:31:26 53° WNW 18:35:39 10° SW
Unknown 3.7 18:28:07 10° WNW 18:32:15 65° N 18:33:20 45° ENE
Cosmos 2084 Rocket 4.0 18:29:07 10° NW 18:33:30 59° SW 18:36:06 23° SSE
Unknown 3.7 18:29:45 10° WNW 18:33:53 65° N 18:34:53 47° ENE
ATLAS 3B R/B 3.2 18:28:17 10° S 18:34:08 33° ESE 18:35:04 32° E
ATLAS 5 CENTAUR R/B 3.6 18:31:27 10° WNW 18:35:19 25° NNW 18:39:02 12° NE
Unknown 3.7 18:31:25 10° WNW 18:35:32 66° N 18:36:29 49° ENE
Unknown 3.7 18:33:04 10° WNW 18:37:12 66° N 18:38:04 50° ENE
Unknown 3.4 18:35:24 10° WNW 18:39:07 70° SSW 18:39:40 58° SSE
Unknown 3.7 18:36:23 10° WNW 18:40:32 67° N 18:41:16 54° ENE
CENTAUR R/B 3.0 18:36:22 10° S 18:41:49 37° ESE 18:42:36 36° E
Starlink (trailer) 3.7 18:38:03 10° WNW 18:42:12 67° N 18:42:51 56° ENE
Cosmos 1459 Rocket 3.9 18:37:08 10° N 18:43:23 81° E 18:49:42 10° SSE
H-2A R/B 2.5 18:42:58 40° E 18:43:34 41° ENE 18:48:39 10° N
Unknown 3.6 18:39:45 10° WNW 18:43:53 68° N 18:44:29 58° ENE
Cosmos 2061 Rocket 3.9 18:38:48 10° N 18:45:02 64° ENE 18:49:20 20° SSE
Unknown 3.6 18:41:25 10° WNW 18:45:33 68° N 18:46:04 60° NE
SJ-6B 4.2 18:47:31 25° NNE 18:47:31 25° NNE 18:49:25 10° N
Cosmos 2278 Rocket 2.7 18:41:06 10° SW 18:46:42 60° NW 18:52:22 10° NNE
Cosmos 1898 Rocket 3.4 18:42:05 10° NNW 18:47:25 85° ENE 18:50:02 31° SSE
SJ-11-01 4.2 18:46:45 47° SE 18:47:55 64° ENE 18:52:33 10° N
Cosmos 1766 Rocket 3.6 18:44:40 10° N 18:48:34 53° NE 18:48:34 53° NE
Unknown 3.6 18:46:04 10° WNW 18:50:12 70° N 18:50:31 66° NE
Cosmos 2297 3.7 18:44:57 10° S 18:50:31 58° ESE 18:53:21 29° NE
Unknown 3.6 18:48:04 10° WNW 18:52:13 70° N 18:52:27 68° NE
Unknown 3.6 18:49:56 10° WNW 18:54:06 71° N 18:54:17 69° NNE
Unknown 3.6 18:51:22 10° WNW 18:55:33 71° N 18:55:40 71° NNE
Unknown 3.6 18:53:04 10° WNW 18:57:14 72° N 18:57:16 72° NNE
Unknown 3.6 18:54:51 10° WNW 18:58:57 73° N 18:58:57 73° N
Okean 3 Rocket 3.5 18:54:39 10° N 18:59:13 89° E 19:00:14 54° S
Unknown 3.7 18:58:10 10° WNW 19:02:08 73° NNW 19:02:08 73° NNW
Unknown 3.7 18:58:14 10° WNW 19:02:12 72° NNW 19:02:12 72° NNW
Resurs 01 Rocket 3.5 19:06:07 19° NNE 19:06:07 19° NNE 19:07:40 10° N
Unknown 3.7 18:59:42 10° WNW 19:03:37 71° NNW 19:03:37 71° NNW
ARGOS 3.2 19:05:13 56° ENE 19:05:16 56° ENE 19:10:35 10° N
Unknown 3.8 19:02:57 10° WNW 19:06:44 68° NW 19:06:44 68° NW
USA 238 DEB 3.7 19:01:13 10° SW 19:07:58 82° NW 19:12:35 23° NE
USA 238 3.7 19:01:19 10° SW 19:08:04 82° NW 19:12:38 24° NE
Cosmos 1892 3.7 19:04:26 10° N 19:06:54 38° N 19:06:54 38° N
Cosmos 2058 4.0 19:05:59 10° NNW 19:10:01 45° W 19:12:59 17° SSW
Unknown 3.9 19:06:22 10° WNW 19:10:01 65° NW 19:10:01 65° NW
Cosmos 44 3.5 19:05:47 10° SSW 19:09:46 55° S 19:09:46 55° S
Cosmos 2173 Rocket 4.3 19:05:29 10° NNW 19:11:41 67° W 19:17:47 10° S
Unknown 4.0 19:08:03 10° WNW 19:11:37 63° NW 19:11:37 63° NW
Unknown 4.2 19:08:44 10° WNW 19:11:46 49° WSW 19:11:46 49° WSW
Unknown 4.0 19:09:43 10° WNW 19:13:13 61° NW 19:13:13 61° NW
Unknown 4.1 19:11:24 10° WNW 19:14:50 59° WNW 19:14:50 59° WNW
Cosmos 1864 Rocket 4.3 19:10:59 10° N 19:17:11 81° E 19:18:58 49° SSE
Unknown 4.2 19:14:44 10° WNW 19:18:02 55° WNW 19:18:02 55° WNW
Cosmos 1802 Rocket 4.3 19:13:57 10° NNW 19:20:22 70° W 19:26:33 11° S
Unknown 4.3 19:16:27 10° WNW 19:19:41 53° WNW 19:19:41 53° WNW
Cosmos 2151 3.4 19:16:55 10° NNW 19:20:43 62° NW 19:20:43 62° NW
Unknown 4.4 19:18:01 10° WNW 19:21:12 51° WNW 19:21:12 51° WNW
Ariane Rocket 4.2 19:18:03 10° SSW 19:22:50 40° W 19:27:39 10° NNW
Unknown 4.4 19:19:38 10° WNW 19:22:45 49° WNW 19:22:45 49° WNW
Meteor 2-3 Rocket 4.4 19:19:17 10° N 19:23:33 42° NNE 19:23:33 42° NNE
Cosmos 2123 Rocket 3.8 19:24:50 49° SSE 19:26:36 76° E 19:32:52 10° NNE
Cosmos 468 Rocket 4.2 19:23:53 10° SSW 19:28:19 64° SSW 19:28:19 64° SSW
NOSS 3-2 (A) 3.6 19:25:08 10° SW 19:31:03 71° NW 19:33:48 37° NNE
Cosmos 2150 Rocket 4.4 19:26:19 10° NNW 19:30:47 55° N 19:30:47 55° N
Cosmos 2233 Rocket 3.9 19:26:56 10° N 19:32:56 69° ENE 19:32:56 69° ENE
Cosmos 1725 Rocket 4.0 19:28:00 10° NNW 19:34:18 80° W 19:36:08 49° S
CZ-2C R/B 3.5 19:38:10 59° NNE 19:38:10 59° NNE 19:42:57 10° N
Cosmos 1937 Rocket 4.0 19:33:57 10° NNW 19:38:56 52° WSW 19:39:25 50° SW
Cosmos 2227 Rocket 4.3 19:41:00 10° N 19:43:33 15° NNE 19:43:33 15° NNE
Cosmos 2297 Rocket 4.3 19:45:43 10° N 19:48:12 15° NNE 19:48:12 15° NNE
ADEOS Rocket 3.3 19:42:19 10° NNE 19:50:05 86° ESE 19:54:18 28° SSW
NOSS 3-2 (C) 3.6 19:50:54 10° SW 19:56:51 72° NW 19:57:05 71° NNW
SJ 16-02 3.3 19:59:51 10° NW 20:02:46 26° W 20:02:46 26° W
ATLAS CENTAUR R/B 3.8 20:04:42 10° NW 20:06:23 22° NNW 20:06:23 22° NNW
Cosmos 1238 Rocket 4.3 20:03:16 10° NNW 20:08:47 62° NNW 20:08:47 62° NNW
ATLAS 5 CENTAUR R/B 4.1 20:17:43 10° NW 20:20:34 21° N 20:20:34 21° N
H-2A R/B 3.5 20:23:36 36° W 20:23:36 36° W 20:28:04 10° NNW
ATLAS 3B R/B 3.3 20:17:43 10° SW 20:22:24 47° WSW 20:22:24 47° WSW
CENTAUR R/B 3.5 20:25:54 10° WSW 20:29:52 41° WSW 20:29:52 41° WSW
